Regional Weather Roundup
Issued by NWS Portland, ME

Home | Current Version | Previous Version | Text Only | Print | Product List | Glossary On
Versions: 1 2 3 4 5 6 7 8 9 10 11 12 13 14 15 16 17 18 19 20 21 22 23 24 25 26 27 28 29 30 31 32 33 34 35 36 37 38 39 40 41 42 43 44 45 46 47 48 49 50
000
ASUS41 KGYX 191405
RWRGYX
WEATHER ROUNDUP FOR MAINE AND NEW HAMPSHIRE
NATIONAL WEATHER SERVICE GRAY ME
1000 AM EDT FRI SEP 19 2014

MEZ002-005-006-010-012-015-018-020-021-024-026-027-029-191500-
MAINE

CITY           SKY/WX    TMP DP  RH WIND       PRES   REMARKS
PORTLAND       SUNNY     51  30  44 N13       30.39R
SANFORD        SUNNY     48  27  43 N9        30.39S
BAR HARBOR     SUNNY     48  30  49 N12G18    30.36R
WISCASSET      SUNNY     51  30  44 MISG      30.40R
ROCKLAND       SUNNY     50  28  43 NE10G16   30.36S
FRYEBURG       SUNNY     49  25  39 N7        30.39S
LEWISTONAUBURN SUNNY     46  28  49 N10       30.39R
AUGUSTA        SUNNY     48  27  44 NW13      30.38R
WATERVILLE     SUNNY     46  27  46 N10       30.33S
BANGOR         SUNNY     48  27  44 N8        30.38R
GREENVILLE       N/A     43  26  51 NW9       30.32R
MILLINOCKET    SUNNY     48  21  34 N7        30.37R
HOULTON        SUNNY     45  27  49 NW10      30.33R
PRESQUE ISLE   SUNNY     43  27  52 N12       30.33R
FRENCHVILLE    SUNNY     40  29  64 NW10      30.31R
CARIBOU        SUNNY     43  30  60 N8        30.32R
$$

NHZ002-005-008-009-011-012-014-191500-
NEW HAMPSHIRE

CITY           SKY/WX    TMP DP  RH WIND       PRES   REMARKS
PORTSMOUTH     MOSUNNY   52  29  40 N12       30.38R
ROCHESTER      SUNNY     50  29  44 VRB6      30.39R
NASHUA         SUNNY     49  33  54 VRB5      30.41R
MANCHESTER     SUNNY     51  30  44 NE12      30.38R
CONCORD        SUNNY     50  34  54 CALM      30.40R
LACONIA        SUNNY     48  28  46 CALM      30.37S
PLYMOUTH       FAIR      46  33  59 CALM      30.39S
BERLIN         SUNNY     42  28  57 CALM      30.38R
WHITEFIELD     SUNNY     43  32  65 CALM      30.39R
JAFFREY        SUNNY     45  33  63 VRB3      30.38R
LEBANON        MOSUNNY   46  30  53 N5        30.40S
MT WASHINGTON  MOSUNNY   21  -2  35 N21         N/A  WCI   6
$$

VTZ005-007-008-191500-
VERMONT

CITY           SKY/WX    TMP DP  RH WIND       PRES   REMARKS
ST JOHNSBURY     N/A     40  32  73 MISG      30.39S
MONTPELIER     MOSUNNY   37  35  92 CALM      30.43S
BURLINGTON     SUNNY     46  30  53 CALM      30.41S
$$

MAZ007-012-024-CTZ003-RIZ002-NYZ038-NYZ072-191500-
SOUTHERN NEW ENGLAND AND NY

CITY           SKY/WX    TMP DP  RH WIND       PRES   REMARKS
BOSTON         SUNNY     53  35  50 N10       30.39R
WORCESTER      SUNNY     47  33  58 VRB7      30.37R
NANTUCKET      MOSUNNY   58  40  51 NE22      30.31R
PROVIDENCE     MOSUNNY   55  36  48 NE13      30.38R
HARTFORD       MOSUNNY   54  34  46 NE14      30.37R
ALBANY         MOSUNNY   50  36  58 NE7       30.39S
NEW YORK CITY  MOSUNNY   58  44  60 NE16      30.33R
$$

ANZ081-ANZ082-ANZ150-NHZ014-MEZ023>029-191500-
COASTAL MARINE OBSERVATIONS

STATION/POSITION TIME  TEMP    WIND        PRES    WAVE
                       AIR SEA DIR/SP/G            HT/PER
                 (UTC) (F)     (DEG/KT/KT) (MB)    (FT/S)
MATINICUS ROCK   1300           10/ 11/ 12 1027.4R
PORTLAND WX BUOY 1350   47 57   10/ 10/ 14 1028.7R   2/11
WELLS            1300   47 58   20/ 11/ 13 1028.0R
ISLE OF SHOALS   1300   48      20/ 19/ 21 1027.8R
JEFFREYS LEDGE   1321      60                N/A     4/ 6
CASHES LEDGE BUO 1350   49 58              1027.7R   4/ 5
$$

.............KEY..............
   WCI - WIND CHILL
   TC  - TEMPERATURE IN CELSIUS
   VSB - VISIBILITY IN MILES
   HX  - HEAT INDEX
   FAIR- INDICATES FEW OR NO CLOUDS BELOW 12,000 FT, WITH NO
         SIGNIFICANT WEATHER AND/OR OBSTRUCTIONS TO VISIBILITY.




USA.gov is the U.S. government's official web portal to all federal, state and local government web resources and services.